Skip navigation

Daily Weather Reports

[Select Refresh to Update]


Yesterday's Data File


3/28/15
Time

Wind Dir
 

Wind Spd
mph

Wind Gust
mph

Hum In
%

Humidity
%

Temp In
 F

Temp
 F

Raw Barom
in

Tot Rain
in

DailyRain
in

HourRain
in

24HrRain
in

RainRate
in/hr
12:00am 336 1 4 20 40 82.1 65.1 30.09 9.73 0.00 0.00 0.00 0.000
12:01am 336 1 2 20 40 82.1 65.1 30.09 9.73 0.00 0.00 0.00 0.000
12:02am 336 2 3 20 40 82.1 65.1 30.09 9.73 0.00 0.00 0.00 0.000
12:02am 336 2 3 20 39 82.1 65.1 30.09 9.73 0.00 0.00 0.00 0.000
12:03am 336 1 3 20 39 81.9 65.1 30.09 9.73 0.00 0.00 0.00 0.000
12:05am 336 0 3 20 39 81.9 65.1 30.09 9.73 0.00 0.00 0.00 0.000
12:06am 336 1 3 20 39 81.9 65.1 30.09 9.73 0.00 0.00 0.00 0.000
12:07am 336 0 3 20 39 81.9 65.1 30.08 9.73 0.00 0.00 0.00 0.000
12:08am 336 0 3 20 39 81.9 65.1 30.08 9.73 0.00 0.00 0.00 0.000
12:09am 336 0 3 20 39 81.9 65.1 30.08 9.73 0.00 0.00 0.00 0.000
12:10am 336 0 3 20 39 81.9 65.1 30.08 9.73 0.00 0.00 0.00 0.000
12:10am 336 1 3 20 39 81.9 65.1 30.08 9.73 0.00 0.00 0.00 0.000
12:12am 336 0 3 20 39 81.7 65.0 30.08 9.73 0.00 0.00 0.00 0.000
12:13am 336 0 3 20 39 81.7 65.0 30.08 9.73 0.00 0.00 0.00 0.000
12:14am 336 0 3 20 39 81.7 65.0 30.08 9.73 0.00 0.00 0.00 0.000
12:15am 336 0 3 20 40 81.7 65.0 30.08 9.73 0.00 0.00 0.00 0.000
12:16am 336 1 2 20 40 81.7 65.0 30.08 9.73 0.00 0.00 0.00 0.000
12:17am 336 1 2 20 40 81.7 65.0 30.08 9.73 0.00 0.00 0.00 0.000
12:18am 336 1 2 20 39 81.7 65.0 30.09 9.73 0.00 0.00 0.00 0.000
12:19am 336 1 3 20 39 81.7 65.0 30.09 9.73 0.00 0.00 0.00 0.000
12:20am 336 1 3 20 39 81.7 64.9 30.09 9.73 0.00 0.00 0.00 0.000
12:21am 336 2 3 20 40 81.5 65.0 30.09 9.73 0.00 0.00 0.00 0.000
12:22am 336 1 3 20 40 81.5 64.9 30.09 9.73 0.00 0.00 0.00 0.000
12:23am 336 0 3 20 40 81.5 64.9 30.09 9.73 0.00 0.00 0.00 0.000
12:23am 336 0 3 20 40 81.5 64.9 30.09 9.73 0.00 0.00 0.00 0.000
12:25am 336 1 3 20 40 81.5 64.9 30.09 9.73 0.00 0.00 0.00 0.000
12:26am 336 1 3 20 39 81.5 64.9 30.09 9.73 0.00 0.00 0.00 0.000
12:27am 336 2 3 20 39 81.5 64.8 30.09 9.73 0.00 0.00 0.00 0.000
12:28am 336 3 3 20 40 81.5 64.8 30.08 9.73 0.00 0.00 0.00 0.000
12:29am 336 3 3 20 40 81.4 64.8 30.08 9.73 0.00 0.00 0.00 0.000
12:30am 336 4 5 20 40 81.4 64.8 30.08 9.73 0.00 0.00 0.00 0.000
12:31am 336 3 4 20 40 81.4 64.7 30.08 9.73 0.00 0.00 0.00 0.000
12:32am 336 2 4 20 40 81.4 64.6 30.08 9.73 0.00 0.00 0.00 0.000
12:33am 336 3 4 20 40 81.4 64.6 30.08 9.73 0.00 0.00 0.00 0.000
12:34am 336 4 4 20 40 81.4 64.5 30.08 9.73 0.00 0.00 0.00 0.000
12:35am 336 2 4 20 40 81.4 64.5 30.08 9.73 0.00 0.00 0.00 0.000
12:36am 336 3 4 20 40 81.4 64.4 30.08 9.73 0.00 0.00 0.00 0.000
12:37am 336 2 4 20 40 81.2 64.4 30.08 9.73 0.00 0.00 0.00 0.000
12:38am 336 2 4 21 40 81.2 64.3 30.08 9.73 0.00 0.00 0.00 0.000
12:38am 336 2 4 21 40 81.2 64.3 30.08 9.73 0.00 0.00 0.00 0.000
12:40am 336 1 4 21 40 81.2 64.3 30.08 9.73 0.00 0.00 0.00 0.000
12:41am 336 0 4 21 40 81.2 64.2 30.08 9.73 0.00 0.00 0.00 0.000
12:42am 336 0 4 21 40 81.2 64.2 30.08 9.73 0.00 0.00 0.00 0.000
12:43am 336 0 4 21 40 81.2 64.2 30.08 9.73 0.00 0.00 0.00 0.000
12:44am 336 0 4 21 40 81.2 64.2 30.08 9.73 0.00 0.00 0.00 0.000
12:45am 336 0 4 21 40 81.2 64.1 30.08 9.73 0.00 0.00 0.00 0.000
12:46am 336 0 2 21 40 81.0 64.1 30.08 9.73 0.00 0.00 0.00 0.000
12:47am 336 0 2 21 40 81.0 64.1 30.08 9.73 0.00 0.00 0.00 0.000
12:47am 336 0 2 21 40 81.0 64.1 30.08 9.73 0.00 0.00 0.00 0.000
12:49am 336 0 2 21 40 81.0 64.1 30.08 9.73 0.00 0.00 0.00 0.000
12:50am 336 1 2 21 40 81.0 64.1 30.08 9.73 0.00 0.00 0.00 0.000
12:51am 336 3 3 21 40 81.0 64.1 30.08 9.73 0.00 0.00 0.00 0.000
12:52am 336 0 3 21 39 81.0 64.0 30.08 9.73 0.00 0.00 0.00 0.000
12:53am 336 0 3 21 39 81.0 64.0 30.08 9.73 0.00 0.00 0.00 0.000
12:54am 336 0 3 21 39 80.8 64.1 30.08 9.73 0.00 0.00 0.00 0.000
12:55am 336 0 3 21 39 80.8 64.0 30.08 9.73 0.00 0.00 0.00 0.000
12:56am 336 0 3 21 39 80.8 64.1 30.08 9.73 0.00 0.00 0.00 0.000
12:57am 336 0 3 21 39 80.8 64.1 30.08 9.73 0.00 0.00 0.00 0.000
12:58am 336 0 3 21 40 80.8 64.1 30.08 9.73 0.00 0.00 0.00 0.000
12:58am 336 0 3 21 39 80.8 64.1 30.08 9.73 0.00 0.00 0.00 0.000
1:00am 336 0 3 21 39 80.8 64.1 30.08 9.73 0.00 0.00 0.00 0.000
1:01am 336 0 2 21 39 80.8 64.1 30.07 9.73 0.00 0.00 0.00 0.000
1:02am 336 0 2 21 39 80.6 64.1 30.07 9.73 0.00 0.00 0.00 0.000
1:03am 336 0 2 21 40 80.6 64.1 30.08 9.73 0.00 0.00 0.00 0.000
1:04am 336 0 2 21 40 80.6 64.2 30.08 9.73 0.00 0.00 0.00 0.000
1:05am 336 0 2 21 40 80.6 64.2 30.08 9.73 0.00 0.00 0.00 0.000
1:06am 336 0 2 21 40 80.6 64.2 30.08 9.73 0.00 0.00 0.00 0.000
1:07am 336 0 2 21 40 80.6 64.2 30.08 9.73 0.00 0.00 0.00 0.000
1:08am 336 0 2 21 40 80.6 64.2 30.08 9.73 0.00 0.00 0.00 0.000
1:09am 336 0 2 21 40 80.6 64.2 30.08 9.73 0.00 0.00 0.00 0.000
1:10am 336 0 2 21 40 80.4 64.2 30.08 9.73 0.00 0.00 0.00 0.000
1:11am 336 2 3 21 40 80.4 64.2 30.08 9.73 0.00 0.00 0.00 0.000
1:12am 336 2 3 21 40 80.4 64.2 30.08 9.73 0.00 0.00 0.00 0.000
1:13am 336 2 3 21 39 80.4 64.2 30.08 9.73 0.00 0.00 0.00 0.000
1:14am 336 1 3 21 39 80.4 64.2 30.08 9.73 0.00 0.00 0.00 0.000
1:15am 336 2 3 21 39 80.4 64.1 30.08 9.73 0.00 0.00 0.00 0.000
1:16am 336 2 3 21 39 80.4 64.1 30.08 9.73 0.00 0.00 0.00 0.000
1:17am 336 3 3 21 39 80.4 64.1 30.08 9.73 0.00 0.00 0.00 0.000
1:18am 336 2 3 21 40 80.4 64.0 30.08 9.73 0.00 0.00 0.00 0.000
1:19am 336 0 3 21 40 80.4 63.9 30.08 9.73 0.00 0.00 0.00 0.000
1:20am 336 1 3 21 40 80.2 63.9 30.08 9.73 0.00 0.00 0.00 0.000
1:21am 336 1 3 21 39 80.2 63.9 30.08 9.73 0.00 0.00 0.00 0.000
1:22am 336 2 3 21 39 80.2 63.8 30.08 9.73 0.00 0.00 0.00 0.000
1:23am 336 2 3 21 39 80.2 63.8 30.08 9.73 0.00 0.00 0.00 0.000
1:24am 336 2 3 21 39 80.2 63.8 30.08 9.73 0.00 0.00 0.00 0.000
1:25am 336 3 3 21 39 80.2 63.8 30.08 9.73 0.00 0.00 0.00 0.000
1:26am 336 2 3 21 39 80.2 63.7 30.08 9.73 0.00 0.00 0.00 0.000
1:27am 332 3 3 21 39 80.2 63.7 30.08 9.73 0.00 0.00 0.00 0.000
1:28am 332 2 4 21 39 80.1 63.7 30.08 9.73 0.00 0.00 0.00 0.000
1:29am 332 3 4 21 39 80.1 63.7 30.08 9.73 0.00 0.00 0.00 0.000
1:30am 332 1 4 21 39 80.1 63.7 30.08 9.73 0.00 0.00 0.00 0.000
1:31am 332 3 3 21 39 80.1 63.7 30.08 9.73 0.00 0.00 0.00 0.000
1:32am 332 3 3 21 40 80.1 63.8 30.08 9.73 0.00 0.00 0.00 0.000
1:33am 332 2 3 21 40 80.1 63.8 30.08 9.73 0.00 0.00 0.00 0.000
1:34am 332 2 3 21 40 80.1 63.8 30.08 9.73 0.00 0.00 0.00 0.000
1:35am 332 3 4 21 40 80.1 63.7 30.08 9.73 0.00 0.00 0.00 0.000
1:36am 332 3 4 21 39 79.9 63.7 30.08 9.73 0.00 0.00 0.00 0.000
1:37am 332 3 4 21 39 79.9 63.7 30.08 9.73 0.00 0.00 0.00 0.000
1:38am 332 2 4 21 39 79.9 63.6 30.08 9.73 0.00 0.00 0.00 0.000
1:39am 332 3 4 21 39 79.9 63.6 30.08 9.73 0.00 0.00 0.00 0.000
1:40am 332 4 4 21 39 79.9 63.5 30.08 9.73 0.00 0.00 0.00 0.000
1:41am 332 3 4 21 39 79.9 63.5 30.08 9.73 0.00 0.00 0.00 0.000
1:42am 332 3 4 21 39 79.9 63.5 30.08 9.73 0.00 0.00 0.00 0.000
1:43am 332 3 4 21 39 79.9 63.5 30.08 9.73 0.00 0.00 0.00 0.000
1:44am 332 2 4 21 39 79.9 63.4 30.08 9.73 0.00 0.00 0.00 0.000
1:45am 332 2 4 21 39 79.7 63.4 30.08 9.73 0.00 0.00 0.00 0.000
1:46am 332 2 3 21 40 79.7 63.4 30.08 9.73 0.00 0.00 0.00 0.000
1:47am 332 2 4 21 40 79.7 63.4 30.08 9.73 0.00 0.00 0.00 0.000
1:48am 332 2 4 21 40 79.7 63.4 30.08 9.73 0.00 0.00 0.00 0.000
1:49am 332 4 4 21 40 79.7 63.4 30.08 9.73 0.00 0.00 0.00 0.000
1:50am 332 2 4 21 40 79.7 63.4 30.08 9.73 0.00 0.00 0.00 0.000
1:51am 332 2 4 21 40 79.7 63.3 30.08 9.73 0.00 0.00 0.00 0.000
1:52am 332 3 4 21 40 79.7 63.3 30.08 9.73 0.00 0.00 0.00 0.000
1:53am 332 3 4 21 40 79.7 63.3 30.08 9.73 0.00 0.00 0.00 0.000
1:54am 322 5 5 21 40 79.5 63.4 30.08 9.73 0.00 0.00 0.00 0.000
1:55am 325 2 5 21 40 79.5 63.4 30.08 9.73 0.00 0.00 0.00 0.000
1:56am 325 4 5 21 40 79.5 63.4 30.08 9.73 0.00 0.00 0.00 0.000
1:57am 325 5 5 21 40 79.5 63.5 30.08 9.73 0.00 0.00 0.00 0.000
1:58am 331 3 5 21 40 79.5 63.5 30.08 9.73 0.00 0.00 0.00 0.000
1:59am 330 2 5 21 40 79.5 63.6 30.08 9.73 0.00 0.00 0.00 0.000
2:00am 330 4 5 21 40 79.5 63.7 30.08 9.73 0.00 0.00 0.00 0.000
2:01am 330 4 4 21 40 79.5 63.7 30.08 9.73 0.00 0.00 0.00 0.000
2:02am 330 4 5 21 40 79.5 63.7 30.08 9.73 0.00 0.00 0.00 0.000
2:03am 334 4 5 21 39 79.5 63.8 30.08 9.73 0.00 0.00 0.00 0.000
2:04am 334 3 5 21 39 79.3 63.9 30.08 9.73 0.00 0.00 0.00 0.000
2:05am 333 3 5 21 39 79.3 63.9 30.08 9.73 0.00 0.00 0.00 0.000
2:06am 333 2 5 21 39 79.3 64.0 30.08 9.73 0.00 0.00 0.00 0.000
2:07am 333 2 5 21 39 79.3 64.0 30.08 9.73 0.00 0.00 0.00 0.000
2:08am 334 0 5 21 39 79.3 64.0 30.08 9.73 0.00 0.00 0.00 0.000
2:09am 334 2 5 21 39 79.3 64.0 30.08 9.73 0.00 0.00 0.00 0.000
2:10am 334 1 5 21 39 79.3 64.1 30.08 9.73 0.00 0.00 0.00 0.000
2:11am 334 0 5 21 39 79.3 64.1 30.08 9.73 0.00 0.00 0.00 0.000
2:12am 334 0 5 21 39 79.1 64.1 30.08 9.73 0.00 0.00 0.00 0.000
2:13am 333 0 5 21 39 79.1 64.1 30.08 9.73 0.00 0.00 0.00 0.000
2:14am 333 0 5 21 39 79.1 64.1 30.08 9.73 0.00 0.00 0.00 0.000
2:15am 334 0 5 21 39 79.1 64.1 30.08 9.73 0.00 0.00 0.00 0.000
2:16am 334 1 1 21 39 79.1 64.0 30.08 9.73 0.00 0.00 0.00 0.000
2:17am 334 0 1 21 39 79.1 64.0 30.07 9.73 0.00 0.00 0.00 0.000
2:18am 334 1 1 21 39 79.1 64.0 30.07 9.73 0.00 0.00 0.00 0.000
2:19am 334 0 1 21 39 79.1 64.0 30.07 9.73 0.00 0.00 0.00 0.000
2:20am 333 0 1 21 39 78.9 64.0 30.07 9.73 0.00 0.00 0.00 0.000
2:21am 334 0 1 21 39 78.9 63.9 30.07 9.73 0.00 0.00 0.00 0.000
2:22am 334 0 1 21 39 78.9 63.9 30.07 9.73 0.00 0.00 0.00 0.000
2:23am 333 0 1 21 39 78.9 63.9 30.07 9.73 0.00 0.00 0.00 0.000
2:24am 334 0 1 21 39 78.9 63.9 30.07 9.73 0.00 0.00 0.00 0.000
2:25am 334 0 1 21 39 78.9 63.9 30.07 9.73 0.00 0.00 0.00 0.000
2:26am 334 0 1 21 39 78.9 63.9 30.07 9.73 0.00 0.00 0.00 0.000
2:27am 333 0 1 21 39 78.9 63.8 30.07 9.73 0.00 0.00 0.00 0.000
2:28am 334 0 1 21 39 78.9 63.8 30.07 9.73 0.00 0.00 0.00 0.000
2:29am 333 0 1 21 39 78.9 63.8 30.07 9.73 0.00 0.00 0.00 0.000
2:30am 334 0 1 21 39 78.9 63.7 30.07 9.73 0.00 0.00 0.00 0.000
2:31am 334 0 1 21 39 78.9 63.7 30.07 9.73 0.00 0.00 0.00 0.000
2:32am 333 0 2 21 39 78.9 63.7 30.07 9.73 0.00 0.00 0.00 0.000
2:33am 334 0 2 21 39 78.8 63.6 30.07 9.73 0.00 0.00 0.00 0.000
2:34am 334 0 2 21 39 78.8 63.6 30.07 9.73 0.00 0.00 0.00 0.000
2:35am 333 0 2 21 39 78.8 63.5 30.07 9.73 0.00 0.00 0.00 0.000
2:36am 334 0 2 21 39 78.8 63.5 30.06 9.73 0.00 0.00 0.00 0.000
2:37am 334 0 2 21 39 78.8 63.5 30.07 9.73 0.00 0.00 0.00 0.000
2:38am 334 0 2 21 39 78.8 63.5 30.07 9.73 0.00 0.00 0.00 0.000
2:39am 333 0 2 21 39 78.8 63.4 30.07 9.73 0.00 0.00 0.00 0.000
2:40am 334 0 2 21 40 78.8 63.4 30.07 9.73 0.00 0.00 0.00 0.000
2:41am 333 0 2 21 40 78.8 63.4 30.07 9.73 0.00 0.00 0.00 0.000
2:42am 333 0 2 21 40 78.8 63.4 30.07 9.73 0.00 0.00 0.00 0.000
2:43am 334 1 2 21 40 78.8 63.4 30.07 9.73 0.00 0.00 0.00 0.000
2:44am 334 1 2 21 40 78.8 63.3 30.07 9.73 0.00 0.00 0.00 0.000
2:45am 334 1 2 21 40 78.8 63.3 30.07 9.73 0.00 0.00 0.00 0.000
2:46am 333 0 1 21 40 78.8 63.3 30.07 9.73 0.00 0.00 0.00 0.000
2:47am 333 0 1 21 40 78.8 63.3 30.07 9.73 0.00 0.00 0.00 0.000
2:48am 333 0 1 21 40 78.8 63.3 30.07 9.73 0.00 0.00 0.00 0.000
2:49am 334 0 1 21 40 78.8 63.2 30.06 9.73 0.00 0.00 0.00 0.000
2:50am 334 0 1 21 40 78.8 63.2 30.06 9.73 0.00 0.00 0.00 0.000
2:51am 334 1 2 21 40 78.6 63.2 30.06 9.73 0.00 0.00 0.00 0.000
2:52am 334 1 2 21 40 78.6 63.1 30.06 9.73 0.00 0.00 0.00 0.000
2:53am 334 0 2 21 40 78.6 63.0 30.06 9.73 0.00 0.00 0.00 0.000
2:54am 333 0 2 21 40 78.6 63.0 30.06 9.73 0.00 0.00 0.00 0.000
2:55am 333 0 2 21 40 78.6 63.0 30.06 9.73 0.00 0.00 0.00 0.000
2:56am 334 1 2 21 40 78.6 63.0 30.06 9.73 0.00 0.00 0.00 0.000
2:57am 334 2 3 21 40 78.6 62.9 30.06 9.73 0.00 0.00 0.00 0.000
2:58am 333 2 4 21 40 78.6 62.8 30.06 9.73 0.00 0.00 0.00 0.000
2:59am 334 2 4 21 40 78.6 62.8 30.06 9.73 0.00 0.00 0.00 0.000
3:00am 334 2 4 21 40 78.6 62.8 30.06 9.73 0.00 0.00 0.00 0.000
3:00am 334 2 3 21 40 78.6 62.7 30.06 9.73 0.00 0.00 0.00 0.000
3:02am 333 2 3 21 40 78.6 62.7 30.06 9.73 0.00 0.00 0.00 0.000
3:03am 334 2 3 21 40 78.6 62.6 30.06 9.73 0.00 0.00 0.00 0.000
3:04am 333 0 3 21 40 78.6 62.6 30.06 9.73 0.00 0.00 0.00 0.000
3:05am 334 0 3 21 40 78.6 62.6 30.06 9.73 0.00 0.00 0.00 0.000
3:06am 334 2 3 21 40 78.6 62.6 30.06 9.73 0.00 0.00 0.00 0.000
3:07am 334 0 3 21 40 78.6 62.5 30.06 9.73 0.00 0.00 0.00 0.000
3:07am 334 2 3 21 40 78.6 62.5 30.06 9.73 0.00 0.00 0.00 0.000
3:08am 334 2 3 21 40 78.4 62.5 30.06 9.73 0.00 0.00 0.00 0.000
3:10am 334 1 3 21 40 78.4 62.4 30.06 9.73 0.00 0.00 0.00 0.000
3:11am 333 1 3 21 40 78.4 62.4 30.06 9.73 0.00 0.00 0.00 0.000
3:12am 334 3 3 21 40 78.4 62.3 30.06 9.73 0.00 0.00 0.00 0.000
3:13am 333 2 3 21 40 78.4 62.3 30.06 9.73 0.00 0.00 0.00 0.000
3:13am 334 1 3 21 40 78.4 62.3 30.06 9.73 0.00 0.00 0.00 0.000
3:15am 334 2 3 21 40 78.4 62.3 30.06 9.73 0.00 0.00 0.00 0.000
3:16am 333 2 3 21 40 78.4 62.3 30.06 9.73 0.00 0.00 0.00 0.000
3:17am 334 1 3 21 40 78.4 62.3 30.06 9.73 0.00 0.00 0.00 0.000
3:18am 334 1 3 21 40 78.4 62.3 30.06 9.73 0.00 0.00 0.00 0.000
3:19am 334 1 3 21 40 78.4 62.3 30.06 9.73 0.00 0.00 0.00 0.000
3:20am 334 2 3 21 40 78.4 62.3 30.06 9.73 0.00 0.00 0.00 0.000
3:21am 334 0 3 21 40 78.4 62.4 30.06 9.73 0.00 0.00 0.00 0.000
3:22am 333 0 3 21 40 78.4 62.4 30.06 9.73 0.00 0.00 0.00 0.000
3:23am 334 0 3 21 40 78.4 62.4 30.06 9.73 0.00 0.00 0.00 0.000
3:24am 334 0 3 21 40 78.2 62.4 30.06 9.73 0.00 0.00 0.00 0.000
3:25am 334 0 3 21 40 78.2 62.4 30.06 9.73 0.00 0.00 0.00 0.000
3:26am 334 0 3 21 40 78.2 62.4 30.06 9.73 0.00 0.00 0.00 0.000
3:27am 333 0 3 21 40 78.2 62.4 30.06 9.73 0.00 0.00 0.00 0.000
3:28am 334 0 3 21 40 78.2 62.3 30.06 9.73 0.00 0.00 0.00 0.000
3:29am 333 0 3 21 40 78.2 62.3 30.06 9.73 0.00 0.00 0.00 0.000
3:30am 334 0 3 21 40 78.2 62.3 30.06 9.73 0.00 0.00 0.00 0.000
3:31am 334 0 0 21 40 78.2 62.3 30.06 9.73 0.00 0.00 0.00 0.000
3:32am 334 0 0 21 40 78.2 62.3 30.06 9.73 0.00 0.00 0.00 0.000
3:33am 334 0 0 21 40 78.2 62.3 30.06 9.73 0.00 0.00 0.00 0.000
3:34am 333 0 0 21 40 78.2 62.3 30.07 9.73 0.00 0.00 0.00 0.000
3:35am 333 0 0 21 40 78.2 62.3 30.07 9.73 0.00 0.00 0.00 0.000
3:36am 334 0 0 21 40 78.2 62.2 30.06 9.73 0.00 0.00 0.00 0.000
3:37am 334 0 1 21 40 78.2 62.2 30.07 9.73 0.00 0.00 0.00 0.000
3:38am 334 0 1 21 40 78.2 62.2 30.07 9.73 0.00 0.00 0.00 0.000
3:39am 334 0 1 21 40 78.2 62.2 30.07 9.73 0.00 0.00 0.00 0.000
3:40am 334 0 1 21 40 78.1 62.1 30.07 9.73 0.00 0.00 0.00 0.000
3:41am 334 0 1 21 40 78.1 62.1 30.07 9.73 0.00 0.00 0.00 0.000
3:42am 333 0 1 21 40 78.1 62.1 30.06 9.73 0.00 0.00 0.00 0.000
3:43am 333 0 1 21 40 78.1 62.1 30.07 9.73 0.00 0.00 0.00 0.000
3:44am 334 0 1 21 40 78.1 62.0 30.07 9.73 0.00 0.00 0.00 0.000
3:45am 333 0 1 21 40 78.1 62.0 30.07 9.73 0.00 0.00 0.00 0.000
3:46am 334 1 2 21 40 78.1 61.9 30.07 9.73 0.00 0.00 0.00 0.000
3:47am 334 0 2 21 40 78.1 61.9 30.07 9.73 0.00 0.00 0.00 0.000
3:48am 333 0 2 21 40 78.1 61.9 30.07 9.73 0.00 0.00 0.00 0.000
3:49am 333 0 2 21 40 78.1 61.8 30.07 9.73 0.00 0.00 0.00 0.000
3:50am 333 0 2 21 40 78.1 61.8 30.07 9.73 0.00 0.00 0.00 0.000
3:51am 333 0 2 21 40 78.1 61.8 30.07 9.73 0.00 0.00 0.00 0.000
3:52am 334 1 2 21 40 78.1 61.7 30.07 9.73 0.00 0.00 0.00 0.000
3:53am 334 2 2 21 40 78.1 61.7 30.07 9.73 0.00 0.00 0.00 0.000
3:54am 334 2 2 21 40 77.9 61.6 30.07 9.73 0.00 0.00 0.00 0.000
3:55am 334 2 3 21 40 77.9 61.6 30.07 9.73 0.00 0.00 0.00 0.000
3:56am 333 0 3 21 40 77.9 61.6 30.07 9.73 0.00 0.00 0.00 0.000
3:57am 333 0 3 21 40 77.9 61.5 30.07 9.73 0.00 0.00 0.00 0.000
3:58am 333 0 3 21 40 77.9 61.5 30.07 9.73 0.00 0.00 0.00 0.000
3:59am 334 0 3 21 40 77.9 61.4 30.07 9.73 0.00 0.00 0.00 0.000
4:00am 334 0 3 21 40 77.9 61.4 30.07 9.73 0.00 0.00 0.00 0.000
4:01am 334 0 0 21 40 77.9 61.4 30.07 9.73 0.00 0.00 0.00 0.000
4:02am 334 2 2 21 40 77.9 61.3 30.07 9.73 0.00 0.00 0.00 0.000
4:03am 333 2 2 21 40 77.7 61.3 30.07 9.73 0.00 0.00 0.00 0.000
4:04am 333 0 2 21 40 77.7 61.2 30.07 9.73 0.00 0.00 0.00 0.000
4:05am 334 0 2 21 40 77.7 61.2 30.07 9.73 0.00 0.00 0.00 0.000
4:06am 334 0 2 21 40 77.7 61.2 30.07 9.73 0.00 0.00 0.00 0.000
4:07am 334 0 2 21 40 77.7 61.2 30.07 9.73 0.00 0.00 0.00 0.000
4:08am 333 1 2 21 40 77.7 61.1 30.07 9.73 0.00 0.00 0.00 0.000
4:09am 333 0 2 21 40 77.7 61.1 30.07 9.73 0.00 0.00 0.00 0.000
4:10am 333 0 2 21 41 77.7 61.1 30.07 9.73 0.00 0.00 0.00 0.000
4:11am 334 0 2 21 41 77.7 61.1 30.07 9.73 0.00 0.00 0.00 0.000
4:12am 334 0 2 21 41 77.5 61.1 30.07 9.73 0.00 0.00 0.00 0.000
4:13am 334 0 2 21 41 77.5 61.1 30.07 9.73 0.00 0.00 0.00 0.000
4:14am 334 0 2 21 41 77.5 61.1 30.06 9.73 0.00 0.00 0.00 0.000
4:15am 334 0 2 21 41 77.5 61.1 30.07 9.73 0.00 0.00 0.00 0.000
4:16am 334 0 0 21 41 77.5 61.0 30.06 9.73 0.00 0.00 0.00 0.000
4:17am 333 2 2 21 41 77.5 61.0 30.06 9.73 0.00 0.00 0.00 0.000
4:18am 334 2 2 21 41 77.5 61.0 30.06 9.73 0.00 0.00 0.00 0.000
4:18am 334 0 2 21 41 77.5 61.0 30.06 9.73 0.00 0.00 0.00 0.000
4:20am 334 0 2 21 41 77.5 61.0 30.06 9.73 0.00 0.00 0.00 0.000
4:21am 334 0 2 21 41 77.3 61.0 30.06 9.73 0.00 0.00 0.00 0.000
4:22am 334 0 2 21 41 77.3 61.0 30.06 9.73 0.00 0.00 0.00 0.000
4:23am 333 0 2 21 41 77.3 61.0 30.06 9.73 0.00 0.00 0.00 0.000
4:24am 333 0 2 21 41 77.3 60.9 30.06 9.73 0.00 0.00 0.00 0.000
4:25am 334 0 2 21 41 77.3 61.0 30.06 9.73 0.00 0.00 0.00 0.000
4:26am 333 0 2 21 41 77.3 60.9 30.06 9.73 0.00 0.00 0.00 0.000
4:27am 334 0 2 21 41 77.3 60.9 30.06 9.73 0.00 0.00 0.00 0.000
4:28am 333 0 2 21 41 77.2 60.9 30.06 9.73 0.00 0.00 0.00 0.000
4:29am 334 1 2 21 41 77.2 60.8 30.06 9.73 0.00 0.00 0.00 0.000
4:30am 334 0 2 21 41 77.2 60.8 30.06 9.73 0.00 0.00 0.00 0.000
4:31am 333 0 0 21 41 77.2 60.8 30.06 9.73 0.00 0.00 0.00 0.000
4:32am 334 0 0 21 41 77.2 60.8 30.06 9.73 0.00 0.00 0.00 0.000
4:33am 333 0 0 21 41 77.2 60.8 30.06 9.73 0.00 0.00 0.00 0.000
4:34am 334 0 0 21 41 77.2 60.7 30.06 9.73 0.00 0.00 0.00 0.000
4:35am 334 0 0 21 41 77.2 60.7 30.06 9.73 0.00 0.00 0.00 0.000
4:36am 334 2 2 21 41 77.0 60.7 30.06 9.73 0.00 0.00 0.00 0.000
4:37am 333 1 3 21 41 77.0 60.7 30.06 9.73 0.00 0.00 0.00 0.000
4:38am 333 1 3 21 40 77.0 60.6 30.06 9.73 0.00 0.00 0.00 0.000
4:39am 333 3 3 21 40 77.0 60.5 30.06 9.73 0.00 0.00 0.00 0.000
4:40am 334 2 3 21 40 77.0 60.4 30.07 9.73 0.00 0.00 0.00 0.000
4:41am 334 2 3 21 40 77.0 60.3 30.07 9.73 0.00 0.00 0.00 0.000
4:42am 334 2 3 21 40 77.0 60.3 30.07 9.73 0.00 0.00 0.00 0.000
4:43am 333 1 3 21 40 77.0 60.2 30.07 9.73 0.00 0.00 0.00 0.000
4:44am 333 1 3 21 41 76.8 60.1 30.07 9.73 0.00 0.00 0.00 0.000
4:45am 333 2 3 21 41 76.8 60.1 30.07 9.73 0.00 0.00 0.00 0.000
4:46am 334 2 3 21 41 76.8 60.0 30.07 9.73 0.00 0.00 0.00 0.000
4:47am 334 2 3 21 41 76.8 60.0 30.07 9.73 0.00 0.00 0.00 0.000
4:48am 334 0 3 21 41 76.8 59.9 30.07 9.73 0.00 0.00 0.00 0.000
4:49am 334 0 3 21 41 76.8 59.9 30.07 9.73 0.00 0.00 0.00 0.000
4:50am 334 0 3 21 41 76.8 59.9 30.07 9.73 0.00 0.00 0.00 0.000
4:51am 333 0 3 21 41 76.8 59.9 30.07 9.73 0.00 0.00 0.00 0.000
4:52am 334 0 3 21 41 76.8 59.9 30.07 9.73 0.00 0.00 0.00 0.000
4:53am 334 0 3 21 41 76.6 59.9 30.07 9.73 0.00 0.00 0.00 0.000
4:54am 334 2 3 21 41 76.6 59.8 30.07 9.73 0.00 0.00 0.00 0.000
4:55am 334 1 3 21 41 76.6 59.8 30.07 9.73 0.00 0.00 0.00 0.000
4:56am 334 1 3 21 41 76.6 59.8 30.07 9.73 0.00 0.00 0.00 0.000
4:57am 333 2 3 21 41 76.6 59.8 30.07 9.73 0.00 0.00 0.00 0.000
4:58am 333 0 3 21 41 76.6 59.8 30.07 9.73 0.00 0.00 0.00 0.000
4:59am 334 0 3 21 41 76.6 59.7 30.07 9.73 0.00 0.00 0.00 0.000
5:00am 334 2 3 21 41 76.6 59.7 30.07 9.73 0.00 0.00 0.00 0.000
5:01am 334 2 3 21 41 76.6 59.7 30.07 9.73 0.00 0.00 0.00 0.000
5:02am 334 3 3 21 41 76.6 59.7 30.07 9.73 0.00 0.00 0.00 0.000
5:03am 334 3 4 21 41 76.5 59.6 30.07 9.73 0.00 0.00 0.00 0.000
5:04am 333 3 4 21 41 76.5 59.6 30.07 9.73 0.00 0.00 0.00 0.000
5:05am 334 2 4 21 41 76.5 59.5 30.07 9.73 0.00 0.00 0.00 0.000
5:06am 334 3 4 21 41 76.5 59.5 30.07 9.73 0.00 0.00 0.00 0.000
5:07am 334 3 4 21 41 76.5 59.5 30.07 9.73 0.00 0.00 0.00 0.000
5:08am 334 3 4 21 41 76.5 59.5 30.07 9.73 0.00 0.00 0.00 0.000
5:09am 334 3 4 21 41 76.5 59.5 30.07 9.73 0.00 0.00 0.00 0.000
5:10am 334 1 4 21 41 76.3 59.5 30.07 9.73 0.00 0.00 0.00 0.000
5:11am 333 0 4 21 41 76.3 59.5 30.07 9.73 0.00 0.00 0.00 0.000
5:12am 334 1 4 21 41 76.3 59.5 30.07 9.73 0.00 0.00 0.00 0.000
5:13am 333 1 4 21 41 76.3 59.6 30.07 9.73 0.00 0.00 0.00 0.000
5:14am 334 0 4 21 41 76.3 59.6 30.07 9.73 0.00 0.00 0.00 0.000
5:15am 334 0 4 21 41 76.3 59.6 30.07 9.73 0.00 0.00 0.00 0.000
5:16am 334 0 0 21 41 76.3 59.6 30.07 9.73 0.00 0.00 0.00 0.000
5:17am 333 0 0 21 41 76.3 59.6 30.07 9.73 0.00 0.00 0.00 0.000
5:18am 333 0 0 21 41 76.3 59.7 30.07 9.73 0.00 0.00 0.00 0.000
5:19am 333 0 0 21 41 76.3 59.7 30.07 9.73 0.00 0.00 0.00 0.000
5:20am 333 0 0 21 41 76.1 59.7 30.07 9.73 0.00 0.00 0.00 0.000
5:21am 334 0 0 21 42 76.1 59.7 30.07 9.73 0.00 0.00 0.00 0.000
5:22am 334 0 0 21 42 76.1 59.7 30.08 9.73 0.00 0.00 0.00 0.000
5:23am 333 0 0 21 42 76.1 59.7 30.08 9.73 0.00 0.00 0.00 0.000
5:24am 333 0 0 21 42 76.1 59.7 30.08 9.73 0.00 0.00 0.00 0.000
5:25am 333 0 0 21 42 76.1 59.7 30.08 9.73 0.00 0.00 0.00 0.000
5:26am 333 0 0 21 42 76.1 59.7 30.08 9.73 0.00 0.00 0.00 0.000
5:27am 334 0 0 21 42 76.1 59.7 30.08 9.73 0.00 0.00 0.00 0.000
5:28am 334 0 1 21 41 75.9 59.7 30.08 9.73 0.00 0.00 0.00 0.000
5:29am 333 0 1 21 41 75.9 59.6 30.08 9.73 0.00 0.00 0.00 0.000
5:30am 334 2 3 21 41 75.9 59.6 30.08 9.73 0.00 0.00 0.00 0.000
5:31am 334 2 2 21 41 75.9 59.6 30.08 9.73 0.00 0.00 0.00 0.000
5:32am 333 1 2 21 41 75.9 59.5 30.08 9.73 0.00 0.00 0.00 0.000
5:33am 334 0 2 21 41 75.9 59.4 30.08 9.73 0.00 0.00 0.00 0.000
5:34am 334 0 2 21 41 75.9 59.3 30.08 9.73 0.00 0.00 0.00 0.000
5:35am 334 2 2 21 41 75.9 59.3 30.08 9.73 0.00 0.00 0.00 0.000
5:36am 334 2 3 21 41 75.9 59.3 30.08 9.73 0.00 0.00 0.00 0.000
5:37am 334 1 3 21 41 75.9 59.3 30.08 9.73 0.00 0.00 0.00 0.000
5:38am 334 2 3 21 41 75.8 59.3 30.08 9.73 0.00 0.00 0.00 0.000
5:39am 333 2 3 21 41 75.8 59.3 30.08 9.73 0.00 0.00 0.00 0.000
5:40am 334 2 3 22 41 75.8 59.3 30.08 9.73 0.00 0.00 0.00 0.000
5:41am 334 2 3 22 41 75.8 59.3 30.08 9.73 0.00 0.00 0.00 0.000
5:42am 334 2 3 22 41 75.8 59.2 30.08 9.73 0.00 0.00 0.00 0.000
5:43am 334 2 3 22 41 75.8 59.1 30.08 9.73 0.00 0.00 0.00 0.000
5:44am 334 2 3 22 41 75.8 59.0 30.08 9.73 0.00 0.00 0.00 0.000
5:45am 333 0 3 22 41 75.8 59.0 30.08 9.73 0.00 0.00 0.00 0.000
5:46am 334 0 2 22 41 75.8 58.9 30.08 9.73 0.00 0.00 0.00 0.000
5:47am 334 1 2 22 41 75.6 58.9 30.08 9.73 0.00 0.00 0.00 0.000
5:48am 334 1 2 22 41 75.6 58.8 30.08 9.73 0.00 0.00 0.00 0.000
5:49am 334 2 2 22 41 75.6 58.8 30.08 9.73 0.00 0.00 0.00 0.000
5:50am 334 1 2 22 41 75.6 58.7 30.08 9.73 0.00 0.00 0.00 0.000
5:51am 334 0 2 22 41 75.6 58.7 30.08 9.73 0.00 0.00 0.00 0.000
5:52am 333 0 2 22 41 75.6 58.6 30.08 9.73 0.00 0.00 0.00 0.000
5:53am 333 0 2 22 41 75.6 58.6 30.08 9.73 0.00 0.00 0.00 0.000
5:54am 334 2 2 22 42 75.6 58.5 30.08 9.73 0.00 0.00 0.00 0.000
5:55am 333 0 2 22 42 75.6 58.5 30.08 9.73 0.00 0.00 0.00 0.000
5:56am 334 0 2 22 42 75.4 58.5 30.08 9.73 0.00 0.00 0.00 0.000
5:57am 334 0 2 22 42 75.4 58.5 30.08 9.73 0.00 0.00 0.00 0.000
5:58am 334 0 2 22 43 75.4 58.5 30.08 9.73 0.00 0.00 0.00 0.000
5:59am 333 0 2 22 43 75.4 58.5 30.08 9.73 0.00 0.00 0.00 0.000
6:00am 333 0 2 22 43 75.4 58.5 30.08 9.73 0.00 0.00 0.00 0.000
6:01am 333 0 0 22 43 75.4 58.5 30.09 9.73 0.00 0.00 0.00 0.000
6:02am 334 0 0 22 43 75.4 58.5 30.09 9.73 0.00 0.00 0.00 0.000
6:03am 334 0 0 22 43 75.4 58.4 30.09 9.73 0.00 0.00 0.00 0.000
6:04am 334 0 0 22 43 75.4 58.4 30.09 9.73 0.00 0.00 0.00 0.000
6:05am 334 0 1 22 43 75.2 58.4 30.09 9.73 0.00 0.00 0.00 0.000
6:06am 333 0 1 22 43 75.2 58.4 30.09 9.73 0.00 0.00 0.00 0.000
6:07am 333 0 1 22 43 75.2 58.4 30.09 9.73 0.00 0.00 0.00 0.000
6:08am 334 0 1 22 43 75.2 58.4 30.09 9.73 0.00 0.00 0.00 0.000
6:09am 334 0 1 22 43 75.2 58.4 30.09 9.73 0.00 0.00 0.00 0.000
6:10am 334 0 1 22 43 75.2 58.4 30.09 9.73 0.00 0.00 0.00 0.000
6:11am 334 0 1 22 43 75.2 58.4 30.09 9.73 0.00 0.00 0.00 0.000
6:12am 334 0 1 22 44 75.2 58.3 30.09 9.73 0.00 0.00 0.00 0.000
6:13am 333 0 1 22 43 75.1 58.3 30.09 9.73 0.00 0.00 0.00 0.000
6:14am 334 0 1 22 43 75.1 58.3 30.09 9.73 0.00 0.00 0.00 0.000
6:15am 334 1 1 22 43 75.1 58.3 30.09 9.73 0.00 0.00 0.00 0.000
6:16am 334 2 2 22 43 75.1 58.3 30.09 9.73 0.00 0.00 0.00 0.000
6:17am 334 2 3 22 43 75.1 58.3 30.09 9.73 0.00 0.00 0.00 0.000
6:18am 334 1 3 22 43 75.1 58.2 30.09 9.73 0.00 0.00 0.00 0.000
6:19am 334 0 3 22 43 75.1 58.2 30.09 9.73 0.00 0.00 0.00 0.000
6:20am 333 1 3 22 42 75.1 58.2 30.09 9.73 0.00 0.00 0.00 0.000
6:21am 334 3 3 22 42 74.9 58.2 30.09 9.73 0.00 0.00 0.00 0.000
6:22am 334 2 3 22 43 74.9 58.2 30.10 9.73 0.00 0.00 0.00 0.000
6:23am 334 1 3 22 43 74.9 58.2 30.09 9.73 0.00 0.00 0.00 0.000
6:24am 334 0 3 22 43 74.9 58.2 30.09 9.73 0.00 0.00 0.00 0.000
6:25am 334 0 3 22 43 74.9 58.2 30.09 9.73 0.00 0.00 0.00 0.000
6:26am 334 0 3 22 43 74.9 58.2 30.10 9.73 0.00 0.00 0.00 0.000
6:27am 333 0 3 22 43 74.9 58.2 30.10 9.73 0.00 0.00 0.00 0.000
6:28am 334 0 3 22 43 74.9 58.3 30.10 9.73 0.00 0.00 0.00 0.000
6:29am 334 0 3 22 43 74.9 58.2 30.09 9.73 0.00 0.00 0.00 0.000
6:30am 334 1 3 22 43 74.9 58.3 30.09 9.73 0.00 0.00 0.00 0.000
6:31am 333 0 1 22 43 74.7 58.2 30.09 9.73 0.00 0.00 0.00 0.000
6:32am 334 0 1 22 43 74.7 58.3 30.09 9.73 0.00 0.00 0.00 0.000
6:33am 333 1 1 22 43 74.7 58.3 30.09 9.73 0.00 0.00 0.00 0.000
6:34am 333 0 2 22 43 74.7 58.3 30.09 9.73 0.00 0.00 0.00 0.000
6:35am 333 0 2 22 43 74.7 58.3 30.09 9.73 0.00 0.00 0.00 0.000
6:36am 334 0 2 22 43 74.7 58.3 30.09 9.73 0.00 0.00 0.00 0.000
6:36am 334 0 2 22 43 74.7 58.2 30.10 9.73 0.00 0.00 0.00 0.000
6:38am 334 0 2 21 43 74.7 58.2 30.10 9.73 0.00 0.00 0.00 0.000
6:39am 333 0 2 21 43 74.5 58.2 30.10 9.73 0.00 0.00 0.00 0.000
6:40am 333 0 2 21 43 74.5 58.2 30.10 9.73 0.00 0.00 0.00 0.000
6:41am 333 0 2 21 43 74.5 58.2 30.10 9.73 0.00 0.00 0.00 0.000
6:42am 333 0 2 21 43 74.5 58.2 30.10 9.73 0.00 0.00 0.00 0.000
6:43am 334 0 2 21 43 74.5 58.1 30.10 9.73 0.00 0.00 0.00 0.000
6:44am 334 0 2 21 43 74.5 58.1 30.10 9.73 0.00 0.00 0.00 0.000
6:44am 333 0 2 21 43 74.5 58.1 30.10 9.73 0.00 0.00 0.00 0.000
6:46am 334 1 1 21 43 74.5 58.1 30.10 9.73 0.00 0.00 0.00 0.000
6:47am 333 2 2 21 43 74.5 58.0 30.10 9.73 0.00 0.00 0.00 0.000
6:48am 333 3 3 21 43 74.4 58.0 30.10 9.73 0.00 0.00 0.00 0.000
6:49am 334 2 3 21 43 74.4 58.0 30.10 9.73 0.00 0.00 0.00 0.000
6:50am 334 0 3 21 43 74.4 57.9 30.10 9.73 0.00 0.00 0.00 0.000
6:51am 334 1 3 21 43 74.4 57.9 30.10 9.73 0.00 0.00 0.00 0.000
6:52am 334 0 3 21 43 74.4 57.9 30.10 9.73 0.00 0.00 0.00 0.000
6:53am 333 0 3 21 43 74.4 57.9 30.10 9.73 0.00 0.00 0.00 0.000
6:54am 333 1 3 21 43 74.4 57.8 30.10 9.73 0.00 0.00 0.00 0.000
6:55am 334 1 3 21 43 74.4 57.8 30.10 9.73 0.00 0.00 0.00 0.000
6:56am 334 1 3 21 43 74.2 57.8 30.10 9.73 0.00 0.00 0.00 0.000
6:57am 334 0 3 21 43 74.2 57.8 30.10 9.73 0.00 0.00 0.00 0.000
6:58am 334 1 3 21 43 74.2 57.8 30.10 9.73 0.00 0.00 0.00 0.000
6:59am 334 3 3 21 43 74.2 57.8 30.10 9.73 0.00 0.00 0.00 0.000
7:00am 341 5 5 21 43 74.2 57.8 30.10 9.73 0.00 0.00 0.00 0.000
7:01am 344 3 5 21 43 74.2 57.7 30.11 9.73 0.00 0.00 0.00 0.000
7:02am 344 4 5 21 43 74.2 57.7 30.11 9.73 0.00 0.00 0.00 0.000
7:03am 344 3 5 21 43 74.2 57.6 30.11 9.73 0.00 0.00 0.00 0.000
7:04am 344 4 5 21 43 74.2 57.6 30.11 9.73 0.00 0.00 0.00 0.000
7:05am 344 3 5 21 43 74.2 57.6 30.11 9.73 0.00 0.00 0.00 0.000
7:06am 344 4 5 21 43 74.2 57.6 30.11 9.73 0.00 0.00 0.00 0.000
7:07am 344 3 5 21 43 74.0 57.5 30.11 9.73 0.00 0.00 0.00 0.000
7:08am 344 3 5 21 44 74.0 57.5 30.11 9.73 0.00 0.00 0.00 0.000
7:09am 344 4 5 21 44 74.0 57.5 30.11 9.73 0.00 0.00 0.00 0.000
7:10am 344 2 5 21 44 74.0 57.5 30.11 9.73 0.00 0.00 0.00 0.000
7:11am 344 3 5 21 44 74.0 57.5 30.11 9.73 0.00 0.00 0.00 0.000
7:12am 344 2 5 21 44 74.0 57.5 30.11 9.73 0.00 0.00 0.00 0.000
7:12am 344 3 5 21 44 74.0 57.5 30.11 9.73 0.00 0.00 0.00 0.000
7:14am 344 3 5 21 44 74.0 57.5 30.11 9.73 0.00 0.00 0.00 0.000
7:15am 344 3 5 21 44 73.9 57.6 30.11 9.73 0.00 0.00 0.00 0.000
7:16am 344 2 3 21 44 73.9 57.6 30.11 9.73 0.00 0.00 0.00 0.000
7:17am 344 3 3 21 44 73.9 57.7 30.11 9.73 0.00 0.00 0.00 0.000
7:18am 344 1 3 21 44 73.9 57.7 30.11 9.73 0.00 0.00 0.00 0.000
7:19am 344 0 3 21 44 73.9 57.8 30.11 9.73 0.00 0.00 0.00 0.000
7:20am 344 0 3 21 44 73.9 57.9 30.11 9.73 0.00 0.00 0.00 0.000
7:20am 344 0 3 21 44 73.9 58.0 30.11 9.73 0.00 0.00 0.00 0.000
7:21am 344 0 3 21 44 73.9 58.1 30.11 9.73 0.00 0.00 0.00 0.000
7:23am 344 0 3 21 44 73.9 58.2 30.11 9.73 0.00 0.00 0.00 0.000
7:24am 344 0 3 21 45 73.9 58.3 30.11 9.73 0.00 0.00 0.00 0.000
7:25am 344 0 3 21 45 73.9 58.3 30.11 9.73 0.00 0.00 0.00 0.000
7:26am 344 0 3 21 45 73.7 58.4 30.11 9.73 0.00 0.00 0.00 0.000
7:27am 344 0 3 21 45 73.7 58.5 30.11 9.73 0.00 0.00 0.00 0.000
7:28am 344 0 3 21 45 73.7 58.6 30.11 9.73 0.00 0.00 0.00 0.000
7:29am 344 2 3 21 45 73.7 58.7 30.11 9.73 0.00 0.00 0.00 0.000
7:30am 344 3 3 21 45 73.7 58.8 30.11 9.73 0.00 0.00 0.00 0.000
7:31am 263 3 3 21 45 73.7 58.9 30.11 9.73 0.00 0.00 0.00 0.000
7:32am 263 0 3 21 45 73.7 59.1 30.11 9.73 0.00 0.00 0.00 0.000
7:33am 263 0 3 21 44 73.7 59.3 30.11 9.73 0.00 0.00 0.00 0.000
7:34am 263 1 3 21 45 73.7 59.3 30.11 9.73 0.00 0.00 0.00 0.000
7:35am 263 1 3 21 45 73.7 59.3 30.11 9.73 0.00 0.00 0.00 0.000
7:36am 263 0 3 21 44 73.5 59.3 30.11 9.73 0.00 0.00 0.00 0.000
7:37am 263 0 3 21 44 73.5 59.6 30.11 9.73 0.00 0.00 0.00 0.000
7:38am 263 0 3 21 44 73.5 59.7 30.11 9.73 0.00 0.00 0.00 0.000
7:39am 263 0 3 21 44 73.5 59.8 30.11 9.73 0.00 0.00 0.00 0.000
7:40am 263 0 3 21 44 73.5 59.9 30.11 9.73 0.00 0.00 0.00 0.000
7:40am 263 0 3 21 44 73.5 60.0 30.11 9.73 0.00 0.00 0.00 0.000
7:42am 263 0 3 21 44 73.5 60.1 30.11 9.73 0.00 0.00 0.00 0.000
7:43am 263 0 3 21 44 73.5 60.2 30.11 9.73 0.00 0.00 0.00 0.000
7:44am 263 0 3 21 44 73.5 60.3 30.11 9.73 0.00 0.00 0.00 0.000
7:45am 263 0 3 21 44 73.5 60.4 30.11 9.73 0.00 0.00 0.00 0.000
7:46am 263 0 0 21 44 73.5 60.5 30.11 9.73 0.00 0.00 0.00 0.000
7:47am 263 0 0 21 44 73.5 60.6 30.11 9.73 0.00 0.00 0.00 0.000
7:48am 263 0 0 21 44 73.3 60.7 30.11 9.73 0.00 0.00 0.00 0.000
7:49am 263 0 0 21 43 73.3 60.8 30.11 9.73 0.00 0.00 0.00 0.000
7:50am 263 0 0 21 43 73.3 60.9 30.11 9.73 0.00 0.00 0.00 0.000
7:51am 263 0 0 21 44 73.3 61.0 30.11 9.73 0.00 0.00 0.00 0.000
7:52am 263 0 0 21 44 73.3 61.1 30.11 9.73 0.00 0.00 0.00 0.000
7:53am 263 0 0 21 43 73.3 61.2 30.11 9.73 0.00 0.00 0.00 0.000
7:54am 263 0 0 21 44 73.3 61.4 30.11 9.73 0.00 0.00 0.00 0.000
7:55am 263 0 0 21 44 73.3 61.5 30.11 9.73 0.00 0.00 0.00 0.000
7:56am 263 0 0 21 44 73.3 61.7 30.11 9.73 0.00 0.00 0.00 0.000
7:57am 263 0 0 21 44 73.3 61.8 30.11 9.73 0.00 0.00 0.00 0.000
7:58am 263 0 0 21 44 73.3 61.9 30.11 9.73 0.00 0.00 0.00 0.000
7:59am 263 0 0 21 44 73.3 62.1 30.11 9.73 0.00 0.00 0.00 0.000
8:00am 263 0 0 21 44 73.3 62.2 30.11 9.73 0.00 0.00 0.00 0.000
8:01am 263 0 0 21 44 73.3 62.3 30.12 9.73 0.00 0.00 0.00 0.000
8:02am 263 0 0 21 44 73.2 62.4 30.12 9.73 0.00 0.00 0.00 0.000
8:03am 263 0 0 21 44 73.2 62.5 30.12 9.73 0.00 0.00 0.00 0.000
8:04am 263 0 0 21 44 73.2 62.6 30.12 9.73 0.00 0.00 0.00 0.000
8:05am 263 0 0 21 44 73.2 62.8 30.12 9.73 0.00 0.00 0.00 0.000
8:06am 263 0 0 21 44 73.2 63.0 30.12 9.73 0.00 0.00 0.00 0.000
8:07am 263 0 0 21 44 73.2 63.1 30.12 9.73 0.00 0.00 0.00 0.000
8:08am 263 0 0 21 43 73.2 63.3 30.12 9.73 0.00 0.00 0.00 0.000
8:09am 263 0 1 21 42 73.2 63.5 30.12 9.73 0.00 0.00 0.00 0.000
8:10am 263 0 1 21 42 73.2 63.7 30.12 9.73 0.00 0.00 0.00 0.000
8:11am 263 0 1 21 41 73.2 63.9 30.12 9.73 0.00 0.00 0.00 0.000
8:12am 263 0 1 21 41 73.2 64.1 30.12 9.73 0.00 0.00 0.00 0.000
8:13am 263 0 1 21 41 73.2 64.3 30.12 9.73 0.00 0.00 0.00 0.000
8:14am 263 0 1 21 41 73.2 64.6 30.12 9.73 0.00 0.00 0.00 0.000
8:15am 263 0 1 21 41 73.2 64.8 30.12 9.73 0.00 0.00 0.00 0.000
8:16am 263 0 0 21 40 73.2 65.0 30.11 9.73 0.00 0.00 0.00 0.000
8:17am 263 0 0 21 40 73.2 65.2 30.12 9.73 0.00 0.00 0.00 0.000
8:18am 263 0 0 21 39 73.2 65.4 30.11 9.73 0.00 0.00 0.00 0.000
8:19am 263 0 0 21 39 73.2 65.6 30.11 9.73 0.00 0.00 0.00 0.000
8:20am 263 0 0 21 39 73.2 65.7 30.11 9.73 0.00 0.00 0.00 0.000
8:21am 263 0 0 21 39 73.3 65.9 30.11 9.73 0.00 0.00 0.00 0.000
8:21am 263 0 0 21 38 73.3 66.1 30.11 9.73 0.00 0.00 0.00 0.000
8:23am 263 0 0 21 38 73.3 66.2 30.11 9.73 0.00 0.00 0.00 0.000
8:24am 326 0 0 21 38 73.3 66.3 30.11 9.73 0.00 0.00 0.00 0.000
8:25am 326 0 0 21 38 73.3 66.4 30.11 9.73 0.00 0.00 0.00 0.000
8:26am 326 0 0 21 38 73.3 66.5 30.11 9.73 0.00 0.00 0.00 0.000
8:27am 326 1 1 21 37 73.3 66.6 30.11 9.73 0.00 0.00 0.00 0.000
8:28am 326 0 1 21 37 73.3 66.7 30.11 9.73 0.00 0.00 0.00 0.000
8:29am 326 0 1 21 37 73.3 66.8 30.11 9.73 0.00 0.00 0.00 0.000
8:30am 326 1 1 21 36 73.3 66.9 30.11 9.73 0.00 0.00 0.00 0.000
8:31am 326 0 1 21 36 73.3 67.0 30.11 9.73 0.00 0.00 0.00 0.000
8:32am 326 0 1 21 36 73.3 67.2 30.11 9.73 0.00 0.00 0.00 0.000
8:33am 326 0 1 21 36 73.3 67.3 30.11 9.73 0.00 0.00 0.00 0.000
8:34am 326 0 1 21 36 73.5 67.4 30.11 9.73 0.00 0.00 0.00 0.000
8:35am 326 0 1 21 36 73.5 67.5 30.11 9.73 0.00 0.00 0.00 0.000
8:36am 326 0 1 21 36 73.5 67.7 30.11 9.73 0.00 0.00 0.00 0.000
8:37am 326 0 1 21 36 73.5 67.7 30.11 9.73 0.00 0.00 0.00 0.000
8:38am 326 0 1 21 36 73.5 67.9 30.11 9.73 0.00 0.00 0.00 0.000
8:39am 326 0 1 21 35 73.5 68.0 30.11 9.73 0.00 0.00 0.00 0.000
8:40am 326 0 1 21 35 73.5 68.0 30.11 9.73 0.00 0.00 0.00 0.000
8:41am 326 0 1 21 35 73.7 68.2 30.11 9.73 0.00 0.00 0.00 0.000
8:42am 326 0 1 21 35 73.7 68.2 30.11 9.73 0.00 0.00 0.00 0.000
8:43am 326 0 1 21 35 73.7 68.3 30.11 9.73 0.00 0.00 0.00 0.000
8:44am 326 0 1 21 35 73.7 68.4 30.11 9.73 0.00 0.00 0.00 0.000
8:45am 326 0 1 21 34 73.7 68.6 30.11 9.73 0.00 0.00 0.00 0.000
8:46am 326 0 0 21 34 73.7 68.6 30.11 9.73 0.00 0.00 0.00 0.000
8:47am 326 0 0 21 34 73.7 68.7 30.11 9.73 0.00 0.00 0.00 0.000
8:48am 326 0 0 21 33 73.9 68.8 30.11 9.73 0.00 0.00 0.00 0.000
8:49am 35 0 0 21 33 73.9 68.9 30.11 9.73 0.00 0.00 0.00 0.000
8:50am 275 0 0 21 33 73.9 69.0 30.11 9.73 0.00 0.00 0.00 0.000
8:51am 275 0 0 21 32 73.9 69.1 30.11 9.73 0.00 0.00 0.00 0.000
8:52am 276 0 0 22 32 73.9 69.1 30.11 9.73 0.00 0.00 0.00 0.000
8:53am 276 0 0 22 32 74.0 69.3 30.11 9.73 0.00 0.00 0.00 0.000
8:54am 276 0 0 22 32 74.0 69.4 30.11 9.73 0.00 0.00 0.00 0.000
8:55am 276 0 0 22 32 74.0 69.5 30.11 9.73 0.00 0.00 0.00 0.000
8:56am 276 0 0 22 33 74.2 69.6 30.10 9.73 0.00 0.00 0.00 0.000
8:57am 275 0 0 22 33 74.2 69.7 30.10 9.73 0.00 0.00 0.00 0.000
8:58am 276 0 1 22 33 74.2 69.8 30.10 9.73 0.00 0.00 0.00 0.000
8:59am 276 0 1 22 32 74.2 69.9 30.10 9.73 0.00 0.00 0.00 0.000
9:00am 276 0 1 22 32 74.4 70.1 30.10 9.73 0.00 0.00 0.00 0.000
9:01am 276 0 1 22 32 74.4 70.2 30.11 9.73 0.00 0.00 0.00 0.000
9:02am 276 0 1 22 32 74.4 70.4 30.11 9.73 0.00 0.00 0.00 0.000
9:03am 275 1 1 22 32 74.4 70.5 30.11 9.73 0.00 0.00 0.00 0.000
9:04am 275 0 1 22 31 74.4 70.7 30.11 9.73 0.00 0.00 0.00 0.000
9:05am 276 0 1 22 31 74.5 70.8 30.11 9.73 0.00 0.00 0.00 0.000
9:06am 276 0 1 22 31 74.5 71.0 30.11 9.73 0.00 0.00 0.00 0.000
9:07am 276 0 1 22 31 74.5 71.1 30.11 9.73 0.00 0.00 0.00 0.000
9:08am 276 1 1 22 30 74.5 71.3 30.11 9.73 0.00 0.00 0.00 0.000
9:09am 276 1 1 22 30 74.5 71.4 30.11 9.73 0.00 0.00 0.00 0.000
9:10am 242 2 3 22 30 74.7 71.6 30.11 9.73 0.00 0.00 0.00 0.000
9:11am 242 1 3 22 29 74.7 71.7 30.11 9.73 0.00 0.00 0.00 0.000
9:12am 242 1 3 22 29 74.7 71.8 30.11 9.73 0.00 0.00 0.00 0.000
9:13am 242 1 3 21 29 74.9 71.9 30.11 9.73 0.00 0.00 0.00 0.000
9:14am 242 2 3 21 29 74.9 72.0 30.11 9.73 0.00 0.00 0.00 0.000
9:15am 242 0 3 21 29 74.9 72.1 30.11 9.73 0.00 0.00 0.00 0.000
9:16am 242 1 1 21 28 74.9 72.3 30.11 9.73 0.00 0.00 0.00 0.000
9:17am 242 0 1 21 28 74.9 72.4 30.11 9.73 0.00 0.00 0.00 0.000
9:18am 242 0 1 21 28 74.9 72.5 30.11 9.73 0.00 0.00 0.00 0.000
9:19am 242 0 1 21 28 75.1 72.6 30.11 9.73 0.00 0.00 0.00 0.000
9:20am 242 0 1 21 28 75.1 72.7 30.11 9.73 0.00 0.00 0.00 0.000
9:21am 242 1 1 21 28 75.2 72.8 30.11 9.73 0.00 0.00 0.00 0.000
9:22am 242 1 2 21 28 75.2 72.9 30.11 9.73 0.00 0.00 0.00 0.000
9:23am 242 0 2 21 29 75.2 73.1 30.11 9.73 0.00 0.00 0.00 0.000
9:24am 242 0 2 21 28 75.2 73.1 30.11 9.73 0.00 0.00 0.00 0.000
9:25am 242 0 2 21 28 75.4 73.3 30.11 9.73 0.00 0.00 0.00 0.000
9:26am 242 0 2 21 28 75.4 73.3 30.12 9.73 0.00 0.00 0.00 0.000
9:27am 242 0 2 21 28 75.4 73.4 30.11 9.73 0.00 0.00 0.00 0.000
9:28am 242 0 2 21 28 75.4 73.5 30.12 9.73 0.00 0.00 0.00 0.000
9:29am 242 0 2 21 28 75.4 73.6 30.11 9.73 0.00 0.00 0.00 0.000
9:30am 242 0 2 21 28 75.6 73.8 30.11 9.73 0.00 0.00 0.00 0.000
9:31am 242 0 1 21 28 75.6 73.8 30.11 9.73 0.00 0.00 0.00 0.000
9:32am 242 0 1 21 28 75.6 73.9 30.11 9.73 0.00 0.00 0.00 0.000
9:33am 242 0 1 21 27 75.6 74.1 30.11 9.73 0.00 0.00 0.00 0.000
9:34am 242 0 1 21 27 75.8 74.2 30.11 9.73 0.00 0.00 0.00 0.000
9:35am 242 0 1 21 27 75.8 74.3 30.11 9.73 0.00 0.00 0.00 0.000
9:36am 242 0 1 21 27 75.8 74.4 30.11 9.73 0.00 0.00 0.00 0.000
9:37am 242 0 1 21 26 75.9 74.5 30.11 9.73 0.00 0.00 0.00 0.000
9:38am 242 0 1 21 26 75.9 74.7 30.12 9.73 0.00 0.00 0.00 0.000
9:39am 242 0 1 21 26 75.9 74.8 30.11 9.73 0.00 0.00 0.00 0.000
9:40am 242 0 1 21 26 75.9 74.9 30.11 9.73 0.00 0.00 0.00 0.000
9:40am 242 0 1 21 26 76.1 75.0 30.11 9.73 0.00 0.00 0.00 0.000
9:42am 242 0 1 21 26 76.1 75.2 30.11 9.73 0.00 0.00 0.00 0.000
9:43am 242 0 1 21 26 76.1 75.3 30.11 9.73 0.00 0.00 0.00 0.000
9:44am 242 0 1 21 26 76.3 75.5 30.11 9.73 0.00 0.00 0.00 0.000
9:45am 242 0 1 21 26 76.3 75.7 30.11 9.73 0.00 0.00 0.00 0.000
9:46am 242 0 0 21 26 76.3 75.8 30.11 9.73 0.00 0.00 0.00 0.000
9:47am 242 1 2 21 26 76.5 76.0 30.11 9.73 0.00 0.00 0.00 0.000
9:48am 242 1 3 21 26 76.5 76.2 30.11 9.73 0.00 0.00 0.00 0.000
9:48am 241 0 3 21 25 76.5 76.3 30.11 9.73 0.00 0.00 0.00 0.000
9:50am 241 0 3 21 25 76.5 76.4 30.11 9.73 0.00 0.00 0.00 0.000
9:51am 241 0 3 21 25 76.6 76.6 30.11 9.73 0.00 0.00 0.00 0.000
9:52am 241 0 3 21 25 76.6 76.7 30.11 9.73 0.00 0.00 0.00 0.000
9:53am 242 1 3 21 25 76.6 76.7 30.11 9.73 0.00 0.00 0.00 0.000
9:54am 242 1 3 21 25 76.6 76.9 30.11 9.73 0.00 0.00 0.00 0.000
9:55am 242 1 3 21 25 76.8 77.0 30.11 9.73 0.00 0.00 0.00 0.000
9:56am 242 0 3 21 25 76.8 77.1 30.11 9.73 0.00 0.00 0.00 0.000
9:57am 242 0 3 21 25 77.0 77.2 30.11 9.73 0.00 0.00 0.00 0.000
9:58am 241 1 3 21 25 77.0 77.2 30.11 9.73 0.00 0.00 0.00 0.000
9:59am 241 0 3 21 25 77.0 77.4 30.11 9.73 0.00 0.00 0.00 0.000
10:00am 141 3 3 21 25 77.0 77.4 30.11 9.73 0.00 0.00 0.00 0.000
10:01am 137 2 3 21 24 77.0 77.5 30.11 9.73 0.00 0.00 0.00 0.000
10:02am 128 2 3 21 24 77.2 77.6 30.11 9.73 0.00 0.00 0.00 0.000
10:03am 123 2 3 21 24 77.2 77.6 30.11 9.73 0.00 0.00 0.00 0.000
10:04am 123 0 3 21 24 77.2 77.6 30.11 9.73 0.00 0.00 0.00 0.000
10:05am 123 1 3 21 24 77.3 77.7 30.11 9.73 0.00 0.00 0.00 0.000
10:06am 134 1 3 21 25 77.3 77.8 30.11 9.73 0.00 0.00 0.00 0.000
10:07am 137 2 3 21 24 77.5 77.9 30.10 9.73 0.00 0.00 0.00 0.000
10:08am 138 2 3 21 24 77.5 77.9 30.10 9.73 0.00 0.00 0.00 0.000
10:09am 138 1 3 21 24 77.5 78.0 30.10 9.73 0.00 0.00 0.00 0.000
10:10am 138 0 3 21 24 77.5 78.1 30.10 9.73 0.00 0.00 0.00 0.000
10:11am 138 0 3 21 24 77.7 78.2 30.10 9.73 0.00 0.00 0.00 0.000
10:12am 137 0 3 21 24 77.7 78.3 30.10 9.73 0.00 0.00 0.00 0.000
10:13am 137 0 3 21 24 77.7 78.4 30.10 9.73 0.00 0.00 0.00 0.000
10:14am 138 0 3 21 24 77.9 78.5 30.10 9.73 0.00 0.00 0.00 0.000
10:15am 138 0 3 21 24 77.9 78.7 30.10 9.73 0.00 0.00 0.00 0.000
10:16am 138 2 2 21 24 78.1 78.9 30.10 9.73 0.00 0.00 0.00 0.000
10:17am 230 2 3 21 24 78.1 79.0 30.10 9.73 0.00 0.00 0.00 0.000
10:18am 215 4 4 21 23 78.1 79.0 30.10 9.73 0.00 0.00 0.00 0.000
10:19am 215 2 4 21 22 78.2 79.1 30.09 9.73 0.00 0.00 0.00 0.000
10:20am 216 2 4 21 22 78.2 79.2 30.10 9.73 0.00 0.00 0.00 0.000
10:21am 216 0 4 21 21 78.2 79.2 30.10 9.73 0.00 0.00 0.00 0.000
10:22am 216 0 4 21 21 78.4 79.2 30.10 9.73 0.00 0.00 0.00 0.000
10:23am 216 0 4 21 21 78.4 79.3 30.10 9.73 0.00 0.00 0.00 0.000
10:24am 216 1 4 21 22 78.6 79.4 30.10 9.73 0.00 0.00 0.00 0.000
10:25am 215 2 4 21 22 78.6 79.4 30.09 9.73 0.00 0.00 0.00 0.000
10:26am 216 0 4 21 22 78.6 79.5 30.09 9.73 0.00 0.00 0.00 0.000
10:27am 216 0 4 21 22 78.6 79.6 30.09 9.73 0.00 0.00 0.00 0.000
10:28am 213 2 4 21 23 78.8 79.8 30.09 9.73 0.00 0.00 0.00 0.000
10:29am 193 2 4 21 22 78.8 79.9 30.09 9.73 0.00 0.00 0.00 0.000
10:30am 198 1 4 21 22 78.8 80.0 30.09 9.73 0.00 0.00 0.00 0.000
10:31am 198 1 2 21 22 78.8 80.1 30.09 9.73 0.00 0.00 0.00 0.000
10:32am 198 0 2 21 21 78.9 80.1 30.09 9.73 0.00 0.00 0.00 0.000
10:33am 198 0 2 21 21 78.9 80.2 30.09 9.73 0.00 0.00 0.00 0.000
10:34am 198 0 2 21 21 78.9 80.2 30.09 9.73 0.00 0.00 0.00 0.000
10:35am 198 0 2 21 21 79.1 80.2 30.09 9.73 0.00 0.00 0.00 0.000
10:36am 198 0 2 21 21 79.1 80.3 30.09 9.73 0.00 0.00 0.00 0.000
10:37am 198 0 2 21 21 79.1 80.4 30.09 9.73 0.00 0.00 0.00 0.000
10:38am 198 0 2 21 21 79.1 80.5 30.09 9.73 0.00 0.00 0.00 0.000
10:38am 198 1 2 21 21 79.3 80.7 30.09 9.73 0.00 0.00 0.00 0.000
10:40am 198 0 2 21 20 79.3 80.9 30.09 9.73 0.00 0.00 0.00 0.000
10:41am 234 4 4 21 21 79.5 81.1 30.09 9.73 0.00 0.00 0.00 0.000
10:42am 226 3 4 21 20 79.5 81.2 30.09 9.73 0.00 0.00 0.00 0.000
10:43am 226 1 4 21 20 79.5 81.4 30.09 9.73 0.00 0.00 0.00 0.000
10:44am 226 0 4 21 21 79.5 81.5 30.09 9.73 0.00 0.00 0.00 0.000
10:45am 226 0 4 21 21 79.7 81.6 30.09 9.73 0.00 0.00 0.00 0.000
10:46am 207 2 4 21 20 79.7 81.7 30.09 9.73 0.00 0.00 0.00 0.000
10:47am 207 2 4 21 20 79.7 81.7 30.09 9.73 0.00 0.00 0.00 0.000
10:48am 207 2 4 21 20 79.9 81.8 30.09 9.73 0.00 0.00 0.00 0.000
10:49am 207 2 4 21 19 79.9 81.8 30.09 9.73 0.00 0.00 0.00 0.000
10:50am 207 0 4 21 19 79.9 81.8 30.09 9.73 0.00 0.00 0.00 0.000
10:51am 207 0 4 21 19 80.1 81.8 30.09 9.73 0.00 0.00 0.00 0.000
10:52am 207 0 4 21 20 80.1 81.9 30.09 9.73 0.00 0.00 0.00 0.000
10:53am 207 1 4 21 19 80.1 81.9 30.09 9.73 0.00 0.00 0.00 0.000
10:54am 207 0 4 21 19 80.1 82.0 30.09 9.73 0.00 0.00 0.00 0.000
10:55am 207 0 4 21 20 80.2 82.2 30.09 9.73 0.00 0.00 0.00 0.000
10:56am 207 2 4 21 20 80.2 82.4 30.09 9.73 0.00 0.00 0.00 0.000
10:57am 207 1 4 21 20 80.2 82.5 30.09 9.73 0.00 0.00 0.00 0.000
10:58am 207 1 4 21 19 80.4 82.7 30.08 9.73 0.00 0.00 0.00 0.000
10:59am 207 1 4 21 18 80.4 82.8 30.08 9.73 0.00 0.00 0.00 0.000
11:00am 207 0 4 21 18 80.4 82.8 30.08 9.73 0.00 0.00 0.00 0.000
11:01am 207 2 2 21 17 80.4 82.8 30.09 9.73 0.00 0.00 0.00 0.000
11:02am 172 2 4 21 17 80.6 82.8 30.09 9.73 0.00 0.00 0.00 0.000
11:03am 118 1 4 21 17 80.6 82.9 30.09 9.73 0.00 0.00 0.00 0.000
11:04am 201 1 4 21 17 80.6 82.9 30.09 9.73 0.00 0.00 0.00 0.000
11:05am 194 1 4 21 17 80.8 83.0 30.09 9.73 0.00 0.00 0.00 0.000
11:06am 188 1 4 21 17 80.8 83.1 30.09 9.73 0.00 0.00 0.00 0.000
11:07am 188 0 4 21 17 80.8 83.2 30.09 9.73 0.00 0.00 0.00 0.000
11:08am 188 0 4 21 17 81.0 83.3 30.08 9.73 0.00 0.00 0.00 0.000
11:09am 188 0 4 21 17 81.0 83.4 30.08 9.73 0.00 0.00 0.00 0.000
11:10am 188 0 4 21 17 81.0 83.6 30.09 9.73 0.00 0.00 0.00 0.000
11:11am 182 3 4 21 17 81.0 83.7 30.09 9.73 0.00 0.00 0.00 0.000
11:12am 182 0 4 21 17 81.2 83.9 30.09 9.73 0.00 0.00 0.00 0.000
11:13am 93 3 4 21 17 81.2 84.0 30.09 9.73 0.00 0.00 0.00 0.000
11:14am 76 2 4 21 17 81.2 84.0 30.09 9.73 0.00 0.00 0.00 0.000
11:15am 76 0 4 21 17 81.4 84.0 30.09 9.73 0.00 0.00 0.00 0.000
11:16am 78 0 1 21 17 81.4 84.0 30.09 9.73 0.00 0.00 0.00 0.000
11:17am 172 4 5 21 18 81.4 84.1 30.09 9.73 0.00 0.00 0.00 0.000
11:18am 157 1 5 21 18 81.5 84.2 30.09 9.73 0.00 0.00 0.00 0.000
11:19am 157 2 5 21 18 81.5 84.2 30.09 9.73 0.00 0.00 0.00 0.000
11:19am 158 0 5 21 18 81.5 84.3 30.08 9.73 0.00 0.00 0.00 0.000
11:21am 158 1 5 21 18 81.7 84.4 30.08 9.73 0.00 0.00 0.00 0.000
11:22am 157 1 5 21 17 81.7 84.4 30.08 9.73 0.00 0.00 0.00 0.000
11:23am 157 0 5 21 17 81.7 84.5 30.09 9.73 0.00 0.00 0.00 0.000
11:24am 140 1 5 21 17 81.9 84.5 30.08 9.73 0.00 0.00 0.00 0.000
11:25am 159 1 5 21 17 81.9 84.6 30.08 9.73 0.00 0.00 0.00 0.000
11:26am 198 1 5 21 18 81.9 84.6 30.08 9.73 0.00 0.00 0.00 0.000
11:27am 198 1 5 21 18 82.1 84.6 30.08 9.73 0.00 0.00 0.00 0.000
11:28am 221 2 5 21 18 82.1 84.7 30.08 9.73 0.00 0.00 0.00 0.000
11:29am 221 0 5 21 18 82.1 84.7 30.08 9.73 0.00 0.00 0.00 0.000
11:30am 221 1 5 21 18 82.3 84.7 30.08 9.73 0.00 0.00 0.00 0.000
11:31am 213 3 3 21 18 82.3 84.8 30.08 9.73 0.00 0.00 0.00 0.000
11:32am 213 1 3 21 18 82.3 84.9 30.08 9.73 0.00 0.00 0.00 0.000
11:33am 215 2 3 21 18 82.5 85.0 30.08 9.73 0.00 0.00 0.00 0.000
11:34am 207 0 4 21 17 82.5 85.0 30.08 9.73 0.00 0.00 0.00 0.000
11:35am 206 4 4 21 17 82.5 85.1 30.08 9.73 0.00 0.00 0.00 0.000
11:36am 211 2 4 21 18 82.5 85.1 30.08 9.73 0.00 0.00 0.00 0.000
11:37am 229 3 5 21 18 82.7 85.2 30.08 9.73 0.00 0.00 0.00 0.000
11:38am 230 4 5 21 17 82.7 85.3 30.08 9.73 0.00 0.00 0.00 0.000
11:39am 250 0 5 21 17 82.7 85.3 30.08 9.73 0.00 0.00 0.00 0.000
11:40am 255 1 5 21 17 82.9 85.3 30.08 9.73 0.00 0.00 0.00 0.000
11:41am 195 4 5 21 17 82.9 85.3 30.08 9.73 0.00 0.00 0.00 0.000
11:42am 205 6 6 21 17 82.9 85.3 30.08 9.73 0.00 0.00 0.00 0.000
11:43am 209 3 6 21 16 83.0 85.3 30.08 9.73 0.00 0.00 0.00 0.000
11:44am 197 2 6 21 16 83.0 85.3 30.08 9.73 0.00 0.00 0.00 0.000
11:45am 200 0 6 21 16 83.0 85.2 30.08 9.73 0.00 0.00 0.00 0.000
11:46am 200 0 1 21 15 83.0 85.2 30.08 9.73 0.00 0.00 0.00 0.000
11:47am 323 3 4 21 15 83.2 85.2 30.08 9.73 0.00 0.00 0.00 0.000
11:48am 325 2 4 21 15 83.2 85.1 30.08 9.73 0.00 0.00 0.00 0.000
11:49am 325 0 4 21 15 83.2 85.1 30.08 9.73 0.00 0.00 0.00 0.000
11:50am 169 3 5 21 15 83.4 85.1 30.08 9.73 0.00 0.00 0.00 0.000
11:51am 168 1 5 21 16 83.4 85.2 30.08 9.73 0.00 0.00 0.00 0.000
11:52am 194 2 6 21 16 83.4 85.3 30.08 9.73 0.00 0.00 0.00 0.000
11:53am 197 2 6 21 16 83.4 85.3 30.08 9.73 0.00 0.00 0.00 0.000
11:54am 196 1 6 21 16 83.6 85.3 30.08 9.73 0.00 0.00 0.00 0.000
11:54am 196 0 6 21 15 83.6 85.3 30.08 9.73 0.00 0.00 0.00 0.000
11:56am 196 0 6 21 15 83.6 85.3 30.08 9.73 0.00 0.00 0.00 0.000
11:57am 196 0 6 21 15 83.8 85.3 30.08 9.73 0.00 0.00 0.00 0.000
11:58am 198 2 6 21 16 83.8 85.4 30.08 9.73 0.00 0.00 0.00 0.000
11:59am 257 3 6 21 16 83.8 85.4 30.07 9.73 0.00 0.00 0.00 0.000
12:00pm 234 0 6 21 16 83.8 85.5 30.08 9.73 0.00 0.00 0.00 0.000
12:01pm 234 0 2 21 16 84.0 85.7 30.08 9.73 0.00 0.00 0.00 0.000
12:02pm 299 0 4 21 16 84.0 85.9 30.08 9.73 0.00 0.00 0.00 0.000
12:02pm 225 4 5 21 16 84.0 86.0 30.08 9.73 0.00 0.00 0.00 0.000
12:04pm 251 3 5 21 16 84.2 86.1 30.08 9.73 0.00 0.00 0.00 0.000
12:05pm 217 2 5 21 15 84.2 86.1 30.08 9.73 0.00 0.00 0.00 0.000
12:05pm 211 0 5 21 15 84.2 86.1 30.07 9.73 0.00 0.00 0.00 0.000
12:07pm 211 0 5 21 15 84.2 86.1 30.07 9.73 0.00 0.00 0.00 0.000
12:08pm 144 1 5 21 15 84.4 86.1 30.07 9.73 0.00 0.00 0.00 0.000
12:09pm 190 2 5 21 16 84.4 86.1 30.07 9.73 0.00 0.00 0.00 0.000
12:10pm 221 4 5 21 17 84.4 86.1 30.07 9.73 0.00 0.00 0.00 0.000
12:11pm 198 7 9 21 16 84.6 86.2 30.07 9.73 0.00 0.00 0.00 0.000
12:12pm 159 3 9 21 15 84.6 86.1 30.07 9.73 0.00 0.00 0.00 0.000
12:13pm 206 3 9 21 15 84.6 86.1 30.07 9.73 0.00 0.00 0.00 0.000
12:14pm 244 1 9 21 16 84.6 86.2 30.07 9.73 0.00 0.00 0.00 0.000
12:14pm 244 1 9 21 15 84.6 86.2 30.07 9.73 0.00 0.00 0.00 0.000
12:16pm 244 1 1 21 15 84.8 86.3 30.07 9.73 0.00 0.00 0.00 0.000
12:16pm 271 3 3 21 15 84.8 86.4 30.07 9.73 0.00 0.00 0.00 0.000
12:18pm 207 6 6 21 15 84.8 86.4 30.07 9.73 0.00 0.00 0.00 0.000
12:19pm 207 1 6 21 15 85.0 86.4 30.07 9.73 0.00 0.00 0.00 0.000
12:20pm 217 6 6 21 16 85.0 86.5 30.07 9.73 0.00 0.00 0.00 0.000
12:21pm 228 2 6 21 15 85.0 86.6 30.07 9.73 0.00 0.00 0.00 0.000
12:22pm 237 2 6 21 15 85.0 86.6 30.07 9.73 0.00 0.00 0.00 0.000
12:23pm 211 3 6 21 15 85.2 86.6 30.07 9.73 0.00 0.00 0.00 0.000
12:24pm 201 2 6 21 15 85.2 86.7 30.07 9.73 0.00 0.00 0.00 0.000
12:25pm 217 4 6 21 16 85.4 86.7 30.07 9.73 0.00 0.00 0.00 0.000
12:25pm 265 3 6 21 15 85.4 86.8 30.07 9.73 0.00 0.00 0.00 0.000
12:27pm 169 1 6 21 15 85.4 86.8 30.07 9.73 0.00 0.00 0.00 0.000
12:28pm 154 0 6 21 14 85.4 86.8 30.07 9.73 0.00 0.00 0.00 0.000
12:29pm 153 0 6 21 14 85.4 86.7 30.07 9.73 0.00 0.00 0.00 0.000
12:30pm 280 0 6 21 14 85.6 86.7 30.07 9.73 0.00 0.00 0.00 0.000
12:31pm 167 4 4 21 15 85.6 86.7 30.07 9.73 0.00 0.00 0.00 0.000
12:32pm 195 9 9 21 15 85.6 86.7 30.07 9.73 0.00 0.00 0.00 0.000
12:32pm 216 7 10 21 14 85.8 86.7 30.07 9.73 0.00 0.00 0.00 0.000
12:34pm 196 5 10 21 14 85.8 86.7 30.07 9.73 0.00 0.00 0.00 0.000
12:35pm 198 6 10 21 14 85.8 86.7 30.07 9.73 0.00 0.00 0.00 0.000
12:36pm 178 0 10 21 14 86.0 86.6 30.07 9.73 0.00 0.00 0.00 0.000
12:37pm 201 3 10 21 14 86.0 86.6 30.07 9.73 0.00 0.00 0.00 0.000
12:38pm 213 3 10 21 14 86.0 86.7 30.07 9.73 0.00 0.00 0.00 0.000
12:39pm 189 3 10 21 14 86.0 86.7 30.07 9.73 0.00 0.00 0.00 0.000
12:40pm 190 2 10 21 14 86.2 86.7 30.07 9.73 0.00 0.00 0.00 0.000
12:41pm 204 2 10 21 14 86.2 86.7 30.07 9.73 0.00 0.00 0.00 0.000
12:42pm 215 3 10 21 14 86.2 86.6 30.07 9.73 0.00 0.00 0.00 0.000
12:43pm 215 0 10 21 14 86.4 86.6 30.07 9.73 0.00 0.00 0.00 0.000
12:43pm 215 0 10 21 14 86.4 86.5 30.07 9.73 0.00 0.00 0.00 0.000
12:45pm 215 0 10 21 14 86.4 86.5 30.06 9.73 0.00 0.00 0.00 0.000
12:46pm 216 1 3 21 14 86.4 86.5 30.07 9.73 0.00 0.00 0.00 0.000
12:47pm 310 4 4 21 14 86.6 86.6 30.07 9.73 0.00 0.00 0.00 0.000
12:48pm 306 2 5 21 14 86.6 86.6 30.06 9.73 0.00 0.00 0.00 0.000
12:49pm 313 3 5 21 15 86.6 86.6 30.07 9.73 0.00 0.00 0.00 0.000
12:50pm 265 0 5 21 14 86.6 86.6 30.07 9.73 0.00 0.00 0.00 0.000
12:51pm 253 4 5 21 14 86.6 86.7 30.07 9.73 0.00 0.00 0.00 0.000
12:52pm 226 5 10 21 14 86.8 86.8 30.07 9.73 0.00 0.00 0.00 0.000
12:53pm 205 4 10 21 14 86.8 86.7 30.07 9.73 0.00 0.00 0.00 0.000
12:54pm 209 7 10 21 14 86.8 86.8 30.07 9.73 0.00 0.00 0.00 0.000
12:55pm 206 4 10 21 14 86.8 86.7 30.07 9.73 0.00 0.00 0.00 0.000
12:56pm 194 4 10 21 14 87.0 86.7 30.07 9.73 0.00 0.00 0.00 0.000
12:57pm 202 3 10 21 15 87.0 86.8 30.07 9.73 0.00 0.00 0.00 0.000
12:58pm 144 0 10 21 14 87.0 87.0 30.06 9.73 0.00 0.00 0.00 0.000
12:59pm 175 1 10 21 14 87.0 87.1 30.06 9.73 0.00 0.00 0.00 0.000
1:00pm 197 3 10 21 14 87.2 87.2 30.06 9.73 0.00 0.00 0.00 0.000
1:01pm 204 4 6 21 14 87.2 87.3 30.06 9.73 0.00 0.00 0.00 0.000
1:02pm 195 3 6 21 14 87.2 87.4 30.06 9.73 0.00 0.00 0.00 0.000
1:03pm 207 3 6 21 15 87.2 87.5 30.06 9.73 0.00 0.00 0.00 0.000
1:03pm 11 4 6 21 15 87.4 87.6 30.06 9.73 0.00 0.00 0.00 0.000
1:04pm 248 3 6 21 14 87.4 87.7 30.06 9.73 0.00 0.00 0.00 0.000
1:06pm 289 2 6 21 14 87.4 87.8 30.06 9.73 0.00 0.00 0.00 0.000
1:07pm 282 2 6 21 13 87.6 87.8 30.06 9.73 0.00 0.00 0.00 0.000
1:08pm 305 3 6 21 13 87.6 87.7 30.06 9.73 0.00 0.00 0.00 0.000
1:09pm 221 5 6 21 13 87.6 87.7 30.06 9.73 0.00 0.00 0.00 0.000
1:10pm 238 3 7 21 14 87.6 87.7 30.06 9.73 0.00 0.00 0.00 0.000
1:10pm 249 1 7 21 13 87.6 87.7 30.05 9.73 0.00 0.00 0.00 0.000
1:12pm 328 7 7 21 14 87.6 87.7 30.06 9.73 0.00 0.00 0.00 0.000
1:13pm 341 4 7 21 13 87.8 87.6 30.05 9.73 0.00 0.00 0.00 0.000
1:14pm 310 4 7 21 13 87.8 87.4 30.06 9.73 0.00 0.00 0.00 0.000
1:15pm 305 0 7 21 13 87.8 87.4 30.06 9.73 0.00 0.00 0.00 0.000
1:16pm 249 5 6 21 14 88.0 87.4 30.06 9.73 0.00 0.00 0.00 0.000
1:17pm 215 3 6 21 13 88.0 87.4 30.06 9.73 0.00 0.00 0.00 0.000
1:18pm 202 9 9 21 13 88.0 87.4 30.06 9.73 0.00 0.00 0.00 0.000
1:19pm 219 2 9 21 13 88.0 87.5 30.06 9.73 0.00 0.00 0.00 0.000
1:20pm 197 6 9 21 14 88.0 87.6 30.05 9.73 0.00 0.00 0.00 0.000
1:21pm 196 7 10 21 13 88.0 87.6 30.05 9.73 0.00 0.00 0.00 0.000
1:22pm 196 3 10 21 13 88.2 87.6 30.05 9.73 0.00 0.00 0.00 0.000
1:23pm 224 5 10 21 13 88.2 87.6 30.05 9.73 0.00 0.00 0.00 0.000
1:24pm 180 5 10 21 13 88.2 87.6 30.05 9.73 0.00 0.00 0.00 0.000
1:25pm 201 2 10 21 13 88.2 87.6 30.05 9.73 0.00 0.00 0.00 0.000
1:26pm 213 3 10 21 12 88.4 87.6 30.05 9.73 0.00 0.00 0.00 0.000
1:27pm 197 2 10 21 12 88.4 87.6 30.05 9.73 0.00 0.00 0.00 0.000
1:28pm 197 1 10 21 11 88.4 87.6 30.05 9.73 0.00 0.00 0.00 0.000
1:29pm 197 2 10 21 12 88.4 87.6 30.05 9.73 0.00 0.00 0.00 0.000
1:30pm 197 1 10 21 11 88.4 87.6 30.05 9.73 0.00 0.00 0.00 0.000
1:31pm 197 0 1 21 12 88.6 87.6 30.05 9.73 0.00 0.00 0.00 0.000
1:32pm 198 0 1 21 12 88.6 87.6 30.05 9.73 0.00 0.00 0.00 0.000
1:33pm 212 2 3 21 13 88.6 87.7 30.05 9.73 0.00 0.00 0.00 0.000
1:34pm 313 0 5 21 13 88.6 87.9 30.05 9.73 0.00 0.00 0.00 0.000
1:34pm 263 1 6 21 13 88.9 88.0 30.05 9.73 0.00 0.00 0.00 0.000
1:36pm 258 2 6 21 12 88.9 88.2 30.05 9.73 0.00 0.00 0.00 0.000
1:37pm 197 4 6 21 12 88.9 88.2 30.05 9.73 0.00 0.00 0.00 0.000
1:38pm 244 2 6 21 13 88.9 88.4 30.05 9.73 0.00 0.00 0.00 0.000
1:39pm 221 2 6 21 12 89.1 88.4 30.04 9.73 0.00 0.00 0.00 0.000
1:40pm 244 2 6 21 12 89.1 88.4 30.04 9.73 0.00 0.00 0.00 0.000
1:41pm 205 3 6 21 13 89.1 88.6 30.04 9.73 0.00 0.00 0.00 0.000
1:42pm 240 4 7 21 13 89.1 88.6 30.04 9.73 0.00 0.00 0.00 0.000
1:43pm 310 2 7 21 11 89.3 88.7 30.04 9.73 0.00 0.00 0.00 0.000
1:44pm 222 3 7 21 11 89.3 88.6 30.04 9.73 0.00 0.00 0.00 0.000
1:45pm